Wind_Speed
37 38 41 42 45 45 44 41 39 38 38 37 36 30 23 18 17 21 26 26 24 23 22 22 24 24 25 24 24 24 24 24 24 24 24 23 22 21 19 18 16 15 15
39 41 43 44 45 44 41 38 37 37 38 37 35 31 27 23 18 17 17 19 21 21 21 23 24 25 26 25 25 25 24 24 24 24 23 23 22 21 19 18 16 15 14
38 39 41 41 40 39 39 39 39 39 39 38 37 34 31 28 24 20 19 20 21 21 22 23 25 26 27 27 27 26 25 25 24 24 24 23 23 22 20 19 18 16 15
30 32 32 34 35 37 39 41 41 41 40 39 38 35 32 30 27 25 23 23 23 24 25 26 26 27 28 29 29 28 28 27 26 26 25 25 25 24 23 21 20 18 17
28 29 31 33 35 37 39 41 43 43 43 42 40 39 37 34 32 30 29 29 28 28 29 30 30 30 31 31 32 31 31 30 29 29 28 27 26 26 26 24 21 19 18
31 33 34 36 37 39 41 43 44 44 45 44 43 42 41 39 38 36 35 35 35 35 34 34 34 35 35 35 35 35 34 33 32 32 31 30 29 28 28 27 24 22 20
35 36 36 37 38 40 41 41 42 43 43 44 44 44 44 44 43 42 41 41 41 42 41 40 40 40 39 39 39 38 37 37 36 35 34 33 32 30 30 29 27 25 23
37 37 38 39 40 40 41 42 42 42 43 44 45 46 47 48 48 48 48 47 47 48 48 48 47 46 45 44 43 42 41 41 40 39 38 37 35 34 32 31 29 28 26
38 40 41 43 44 44 45 46 45 44 43 43 44 45 47 48 50 52 53 54 54 54 54 54 53 53 52 50 49 47 46 45 44 44 43 41 40 38 36 34 32 30 28
41 43 45 47 48 49 49 47 44 42 41 42 43 44 45 46 47 48 51 55 58 59 60 60 59 59 58 58 56 54 52 50 49 48 47 46 44 42 40 37 34 32 30
45 47 50 52 52 51 49 48 47 48 49 49 50 51 52 52 52 52 52 52 54 58 61 64 65 65 65 64 63 62 59 57 55 53 52 50 49 47 44 41 37 34 32
48 50 52 52 50 49 48 49 51 54 56 58 59 61 61 60 58 56 55 55 55 55 58 61 65 68 70 70 68 67 65 64 62 60 57 55 53 51 47 44 41 37 34
49 52 51 49 47 47 48 51 54 57 60 63 65 66 65 64 62 59 56 55 54 54 56 58 62 65 69 73 74 73 71 69 67 65 63 60 57 55 52 48 44 40 37
51 51 48 46 45 46 49 53 57 60 63 66 67 67 67 66 64 60 57 54 53 52 53 54 56 59 63 67 72 76 76 74 72 70 68 64 61 58 56 52 48 44 40
50 49 46 44 45 47 51 55 59 63 65 66 66 66 66 65 62 59 55 53 52 51 51 51 52 53 55 58 62 68 74 77 76 74 71 69 65 62 59 55 52 48 43
50 46 43 43 45 49 53 58 62 64 66 65 64 63 62 62 60 56 52 49 48 48 49 49 50 50 49 50 51 55 61 70 75 76 75 73 69 65 61 58 54 50 45
48 44 43 44 47 51 56 60 64 65 63 62 62 62 61 58 55 51 48 45 43 44 46 46 47 47 46 45 45 46 48 54 64 72 76 76 72 67 63 59 55 52 47
46 43 44 46 49 53 57 61 64 63 61 60 61 61 58 53 48 44 41 40 39 40 42 45 45 46 44 42 41 40 41 42 47 57 67 74 74 69 64 59 56 53 48
46 45 46 48 51 54 58 61 62 60 59 60 60 59 54 48 42 38 35 34 35 36 39 43 44 44 42 40 38 36 35 35 37 42 52 62 70 69 65 60 56 52 49
48 46 47 49 51 55 58 61 60 58 57 58 59 55 50 43 37 32 28 28 30 32 35 39 42 43 41 40 37 34 32 30 31 34 40 49 59 64 64 60 56 52 49
48 46 47 48 51 55 58 60 58 56 57 57 57 52 45 38 32 26 22 22 25 28 31 35 38 41 40 39 37 34 31 29 28 29 32 38 48 56 60 59 55 52 50
48 46 46 48 51 55 58 59 57 55 56 55 54 50 43 35 28 22 18 16 19 24 28 31 34 37 38 38 37 34 31 29 27 26 27 32 40 50 56 56 55 52 49
48 46 45 47 50 54 58 58 56 55 55 54 52 48 42 34 26 20 14 11 14 19 24 28 31 33 35 36 35 33 30 28 26 24 24 27 36 46 53 54 53 52 48
48 45 45 46 49 53 56 56 55 54 54 53 51 47 41 34 27 20 13 8 7 13 19 24 27 29 32 33 33 32 29 26 25 23 22 24 33 43 50 53 52 50 47
48 46 44 45 48 51 53 54 54 52 52 52 50 46 41 35 28 21 14 8 4 6 13 19 24 26 28 29 30 29 28 26 24 23 23 24 31 42 49 51 50 49 47
48 45 44 44 46 49 51 52 52 51 50 50 49 45 41 36 30 22 15 9 4 2 8 15 20 23 25 26 26 26 25 24 23 22 23 25 31 42 48 50 50 48 46
Wind_Direction
286 289 292 295 298 300 302 304 305 309 314 319 325 326 312 292 268 251 246 240 239 237 240 244 245 242 240 240 240 242 243 244 244 244 243 243 243 242 244 247 252 259 263
286 288 289 291 293 296 298 301 304 308 313 317 322 323 323 319 303 285 268 256 250 246 245 246 245 242 240 239 238 239 241 241 240 239 240 239 238 239 241 244 249 255 260
288 287 289 290 291 293 295 298 302 305 308 311 314 315 315 313 309 300 283 272 262 255 252 251 248 245 242 240 238 238 238 238 238 238 238 238 239 240 241 245 248 251 257
295 295 295 294 294 295 296 298 299 301 302 304 304 304 303 300 296 290 284 277 270 262 257 254 250 247 245 242 240 238 237 236 236 238 239 241 241 242 242 243 246 249 255
302 303 302 301 299 298 298 298 299 299 299 299 298 296 293 290 285 280 274 271 268 263 259 255 251 248 246 244 242 240 237 236 235 236 238 241 243 244 245 245 247 251 255
307 307 305 303 301 299 298 298 298 297 297 295 293 291 288 284 279 274 269 264 261 259 257 255 251 248 245 243 241 240 239 238 236 235 237 239 241 244 247 249 250 250 251
308 306 305 303 302 300 299 298 297 296 295 293 291 289 285 282 277 272 267 262 259 256 254 252 250 248 245 242 240 239 239 239 238 237 237 238 239 241 244 248 253 254 253
311 310 309 308 306 304 303 301 299 297 295 293 290 288 285 281 277 273 268 263 259 255 253 251 249 247 246 244 241 239 237 238 239 239 238 238 239 239 241 244 250 255 258
315 314 312 311 309 308 306 305 304 302 300 297 294 290 287 283 279 274 269 264 259 255 252 250 248 246 245 243 242 241 238 237 238 239 239 239 240 240 240 241 244 250 255
317 316 315 314 314 313 312 312 312 311 310 307 304 300 296 291 286 280 273 267 261 256 253 250 247 245 243 242 241 241 240 239 238 239 239 239 240 240 239 239 241 244 250
320 319 319 318 317 316 316 316 316 315 313 310 308 304 300 296 292 286 279 272 266 260 254 251 248 245 243 241 240 239 239 238 238 238 239 239 240 240 239 239 239 241 245
323 322 321 319 318 318 317 316 316 315 314 312 309 306 302 298 294 288 281 275 268 263 257 253 249 246 243 241 239 238 237 236 237 237 238 239 239 239 239 239 239 240 242
323 322 321 319 318 317 317 317 316 315 313 311 309 305 302 299 295 288 280 273 268 263 258 254 250 247 244 242 239 237 236 235 235 235 237 237 238 239 239 239 239 239 240
324 323 322 319 318 318 318 318 317 315 312 310 308 305 303 300 295 289 281 272 265 260 255 252 249 247 245 243 241 238 236 235 233 233 234 235 236 237 238 238 238 238 239
327 325 322 320 319 319 320 319 317 315 313 311 309 306 304 301 296 290 282 273 264 257 251 248 246 244 244 244 243 241 238 236 234 233 232 233 233 234 235 236 236 237 238
329 326 324 322 322 322 321 321 319 318 315 313 312 309 306 302 297 291 282 273 263 255 249 245 242 240 240 240 242 242 241 238 236 234 233 233 232 232 232 232 233 234 235
331 328 327 326 325 325 324 324 323 321 319 317 316 313 309 303 297 290 282 273 262 254 247 241 238 235 235 237 238 240 240 240 239 236 234 232 232 230 230 229 230 232 232
333 331 330 330 329 328 328 327 326 324 322 321 321 318 314 307 299 290 282 271 260 252 243 236 234 231 231 233 234 237 239 241 240 238 236 233 231 229 228 226 226 228 229
336 335 334 333 332 332 332 331 330 328 326 326 325 323 318 312 304 294 281 270 257 247 239 231 230 229 227 229 231 234 237 241 241 239 236 233 230 228 226 224 224 224 224
339 338 336 335 335 335 335 335 335 332 331 331 331 328 324 319 311 300 285 269 254 243 236 229 228 225 224 225 228 232 234 236 238 238 234 231 228 226 223 221 220 219 219
341 339 337 336 337 338 339 340 340 338 337 337 337 336 332 327 321 308 290 270 250 240 234 228 226 224 222 222 224 227 229 231 232 234 232 227 222 221 219 217 216 215 215
342 340 339 339 340 342 343 345 345 344 344 344 344 344 342 337 332 320 301 276 249 236 227 223 223 221 220 220 222 223 225 226 227 229 229 225 217 214 213 212 212 212 212
344 342 341 342 343 344 346 349 349 349 350 350 350 351 350 347 344 338 323 289 250 231 223 220 221 218 216 217 218 220 223 224 225 228 228 223 213 208 207 207 208 208 210
345 344 343 344 345 347 349 352 353 354 355 356 356 357 358 358 355 352 345 321 262 232 224 219 216 213 212 212 215 218 220 220 222 226 226 219 209 203 201 201 203 204 206
347 345 345 345 347 349 351 354 356 357 358 360 1 3 4 5 4 3 0 352 307 234 216 210 207 206 206 208 210 212 213 215 218 221 221 215 206 198 194 194 197 200 203
347 347 346 346 348 351 353 355 358 359 360 2 4 5 7 10 10 11 12 12 5 211 197 198 200 202 203 203 204 207 209 211 215 216 214 210 201 193 189 189 192 196 200
Height
5846 5843 5841 5838 5834 5831 5828 5825 5821 5816 5811 5805 5799 5794 5790 5787 5786 5788 5790 5792 5794 5795 5797 5799 5801 5803 5804 5806 5807 5809 5810 5811 5813 5814 5816 5818 5820 5821 5822 5823 5824 5825 5825
5839 5837 5834 5831 5827 5824 5821 5818 5814 5810 5806 5801 5797 5794 5791 5789 5788 5787 5788 5789 5789 5790 5791 5793 5794 5796 5798 5799 5801 5803 5804 5806 5807 5809 5811 5813 5815 5816 5818 5819 5820 5820 5821
5831 5828 5825 5822 5818 5816 5813 5811 5808 5804 5800 5796 5793 5791 5789 5788 5787 5786 5785 5785 5785 5785 5786 5787 5788 5789 5790 5792 5794 5796 5798 5799 5801 5803 5805 5807 5809 5811 5813 5815 5816 5816 5816
5822 5819 5816 5813 5811 5808 5805 5802 5800 5797 5794 5791 5788 5786 5785 5784 5783 5782 5781 5781 5780 5780 5780 5781 5781 5782 5783 5785 5786 5788 5790 5792 5794 5797 5799 5801 5803 5806 5808 5810 5812 5812 5812
5817 5813 5810 5807 5804 5800 5797 5794 5790 5787 5784 5782 5780 5778 5777 5776 5775 5774 5774 5773 5773 5773 5773 5774 5774 5775 5776 5777 5779 5780 5782 5785 5787 5790 5792 5795 5797 5799 5802 5805 5807 5807 5808
5811 5808 5804 5800 5796 5792 5788 5785 5781 5777 5773 5770 5768 5766 5765 5764 5764 5764 5763 5763 5763 5763 5764 5764 5765 5766 5767 5768 5770 5772 5774 5776 5779 5782 5785 5787 5790 5792 5795 5797 5800 5801 5803
5805 5800 5796 5792 5787 5783 5778 5774 5770 5766 5762 5758 5754 5752 5750 5749 5749 5749 5749 5749 5750 5750 5751 5752 5754 5755 5757 5758 5760 5762 5764 5767 5770 5773 5776 5779 5782 5786 5788 5790 5792 5794 5796
5797 5791 5786 5781 5777 5772 5767 5763 5758 5754 5749 5745 5741 5738 5735 5733 5732 5731 5732 5733 5734 5735 5735 5737 5739 5741 5743 5746 5748 5751 5753 5756 5760 5763 5766 5770 5773 5777 5780 5783 5785 5787 5788
5789 5783 5777 5771 5765 5759 5754 5749 5744 5739 5735 5730 5726 5723 5719 5717 5715 5713 5712 5713 5714 5715 5717 5719 5722 5725 5728 5731 5735 5738 5741 5744 5748 5752 5755 5760 5763 5767 5771 5775 5778 5780 5780
5780 5772 5765 5758 5750 5743 5737 5731 5726 5722 5718 5714 5710 5706 5702 5699 5696 5694 5692 5691 5692 5694 5696 5698 5702 5705 5710 5714 5718 5723 5727 5731 5735 5739 5743 5748 5752 5756 5760 5764 5768 5771 5773
5768 5760 5752 5744 5735 5728 5721 5715 5709 5704 5700 5695 5691 5687 5683 5679 5675 5673 5671 5670 5669 5670 5672 5675 5679 5683 5688 5693 5699 5704 5710 5715 5720 5725 5730 5735 5739 5744 5748 5753 5758 5761 5764
5757 5749 5740 5732 5724 5716 5709 5702 5695 5688 5682 5676 5670 5664 5659 5655 5651 5648 5646 5645 5645 5646 5648 5651 5655 5659 5664 5670 5677 5684 5690 5697 5704 5709 5715 5721 5726 5731 5736 5741 5746 5751 5755
5749 5741 5731 5722 5714 5706 5698 5691 5683 5674 5666 5657 5649 5642 5635 5630 5626 5623 5621 5620 5620 5621 5624 5627 5631 5635 5640 5646 5653 5661 5668 5676 5684 5691 5698 5705 5711 5717 5723 5729 5734 5740 5744
5741 5731 5722 5713 5705 5696 5688 5680 5671 5660 5650 5639 5629 5620 5611 5604 5600 5597 5596 5595 5596 5598 5600 5604 5608 5612 5617 5622 5629 5637 5645 5654 5663 5671 5679 5687 5695 5702 5709 5716 5722 5728 5734
5732 5722 5712 5704 5696 5688 5679 5669 5658 5646 5634 5622 5610 5599 5589 5580 5574 5571 5570 5570 5572 5574 5578 5582 5587 5592 5597 5602 5607 5614 5622 5631 5641 5650 5659 5669 5677 5686 5694 5702 5709 5716 5722
5722 5712 5703 5695 5687 5677 5668 5656 5644 5631 5617 5604 5592 5579 5568 5558 5551 5546 5545 5546 5549 5552 5556 5562 5568 5573 5579 5584 5590 5595 5602 5610 5619 5629 5639 5650 5660 5669 5679 5687 5695 5703 5711
5712 5703 5695 5686 5677 5667 5656 5643 5630 5615 5601 5587 5574 5561 5548 5537 5529 5524 5522 5524 5527 5531 5537 5543 5550 5557 5563 5569 5574 5580 5585 5591 5599 5609 5619 5630 5642 5652 5662 5672 5681 5690 5699
5705 5695 5686 5677 5667 5656 5644 5630 5616 5600 5586 5572 5557 5542 5529 5517 5509 5505 5503 5504 5507 5512 5518 5526 5534 5541 5549 5555 5561 5566 5571 5577 5582 5590 5599 5611 5623 5635 5646 5657 5667 5677 5687
5696 5686 5677 5667 5658 5646 5633 5619 5604 5588 5573 5558 5543 5526 5511 5500 5493 5488 5486 5487 5490 5496 5502 5511 5519 5527 5536 5543 5549 5554 5560 5565 5569 5574 5582 5592 5605 5619 5632 5644 5655 5665 5675
5688 5679 5669 5660 5649 5638 5624 5609 5593 5578 5563 5547 5530 5513 5498 5487 5480 5475 5473 5473 5477 5482 5489 5497 5506 5515 5524 5531 5538 5544 5549 5555 5559 5563 5569 5577 5589 5602 5617 5630 5642 5654 5664
5682 5673 5663 5653 5642 5630 5616 5600 5584 5569 5553 5537 5520 5503 5489 5479 5471 5466 5464 5464 5467 5472 5478 5486 5495 5504 5513 5521 5528 5534 5540 5546 5550 5554 5559 5565 5574 5588 5604 5618 5631 5642 5653
5677 5667 5658 5647 5635 5623 5609 5593 5577 5562 5546 5530 5513 5497 5484 5473 5465 5460 5458 5457 5459 5464 5470 5477 5485 5494 5503 5511 5518 5525 5532 5537 5542 5547 5551 5556 5563 5576 5591 5606 5619 5632 5643
5672 5662 5652 5641 5630 5617 5603 5588 5572 5557 5542 5526 5510 5495 5482 5471 5463 5458 5455 5454 5455 5459 5464 5471 5478 5486 5495 5503 5510 5517 5524 5530 5535 5540 5544 5548 5555 5566 5580 5595 5609 5622 5633
5668 5658 5647 5637 5625 5613 5599 5584 5569 5554 5539 5524 5509 5495 5483 5472 5464 5459 5455 5454 5454 5457 5461 5466 5473 5480 5488 5496 5503 5510 5517 5523 5528 5533 5537 5541 5548 5558 5571 5586 5599 5612 5625
5664 5653 5643 5633 5622 5610 5596 5582 5567 5553 5539 5525 5511 5498 5486 5475 5467 5461 5457 5456 5455 5456 5459 5464 5470 5477 5484 5491 5498 5505 5511 5517 5523 5527 5532 5536 5542 5552 5564 5578 5591 5604 5616
5661 5650 5640 5629 5619 5607 5595 5581 5567 5554 5540 5528 5515 5502 5491 5480 5472 5465 5461 5459 5458 5458 5460 5464 5469 5475 5482 5488 5495 5501 5507 5513 5518 5523 5527 5532 5537 5547 5558 5571 5584 5597 5609